Location: Erlenbrunn
(49.1717°N, 7.6142°E)
Time: 12:37:27
(UTC+00:00)

SMAP - Pass Details

Date: 25 November 2020
Orbit: 681 x 683 km, 98.1° (Epoch: 26 January)

Event Time Altitude Azimuth Distance (km) Brightness Sun altitude
Rises 16:35:52 0° 160° (SSE) 3,034 6.4 -9.3°
Reaches altitude 10° 16:38:06 10° 159° (SSE) 2,123 5.6 -9.7°
Maximum altitude 16:42:44 77° 74° (ENE) 707 3.0 -10.4°
Drops below altitude 10° 16:47:25 10° 349° (NNW) 2,140 5.5 -11.1°
Sets 16:49:40 0° 348° (NNW) 3,061 6.4 -11.4°
